カタログに戻る

STARLINK-33699

運用中通信VLEO
NORAD 63328·PAYLOAD·🇺🇸 United States

打ち上げ Mar 18, 2025 から Cape Canaveral Space Force Station

Loading…

次のパス (今後24時間)

TLE

最新Source: CelesTrak SupGP

元期: Sep 15, 2026, 03:23 UTC

1 63328C 25057X   26258.14145833 -.00008582  00000+0 -31081-3 0  2581
2 63328  43.0042  33.1640 0001466 267.6449   8.1129 15.27586189    13

AllMySatでSTARLINK-33699をリアルタイム追跡

Download on the App Store